Flag for U.S.A. Weather past 2 weeks in Bridgewater, Massachusetts, U.S.A.

Now
45 °F

Mostly cloudy.


Feels Like: 41 °F
Forecast: 33 / 43 °F
Wind: 8 mph from West

Location: Taunton Municipal Airport

Current Time: Dec 17, 2014 at 9:40:56 PM

Latest Report: Dec 17, 2014 at 8:52 PM


Visibility: 10 mi

Pressure: 29.74 "Hg

Humidity: 71%

Dew point: 36 °F

Location of BridgewaterLocation

Historic Weather in Bridgewater — Graph

°F

Bridgewater temperature yesterday

Maximum temperature yesterday: 43 °F (at 1:52 PM)
Minimum temperature yesterday: 31 °F (at 12:52 AM)
Average temperature yesterday: 38 °F

Past Weeks' High & Low Weather Summary

 TemperatureHumidityPressure
High56 °F (Dec 9, 7:52 PM)100% (Dec 3, 5:52 AM)30.71 "Hg (Dec 3, 5:52 AM)
Low21 °F (Dec 5, 6:52 AM)27% (Dec 7, 6:52 PM)29.42 "Hg (Dec 10, 6:52 PM)
Average38 °F79%30.04 "Hg
* Reported Dec 2 7:52 PM — Dec 17 7:52 PM, Bridgewater, Weather by CustomWeather, © 2014

Note: Actual official high and low records may vary slightly from our data, if they occured in-between our weather recording intervals... More about our weather records

Advertising

Bridgewater weather history for previous 24 hours

 ConditionsComfort  
Time TempWeatherWind HumidityBarometerVisibility
7:52 PM
Dec 17
45 °FPassing clouds.5 mph74%29.74 "Hg10 mi
6:52 PM46 °FPassing clouds.7 mph71%29.74 "Hg10 mi
5:52 PM47 °FClear.9 mph71%29.74 "Hg10 mi
4:52 PM47 °FPassing clouds.8 mph74%29.72 "Hg10 mi
3:52 PM48 °FSunny.8 mph74%29.70 "Hg10 mi
2:52 PM49 °FOvercast.8 mph80%29.70 "Hg10 mi
2:01 PM48 °FMostly cloudy.8 mph83%29.69 "Hg10 mi
12:52 PM45 °FLow clouds.5 mph93%29.69 "Hg10 mi
11:52 AM44 °FLow clouds.7 mph93%29.70 "Hg10 mi
10:52 AM43 °FFog.7 mph93%29.72 "Hg4 mi
9:52 AM43 °FLow clouds.7 mph93%29.73 "Hg9 mi
8:52 AM43 °FLow clouds.5 mph93%29.72 "Hg10 mi
7:52 AM46 °FLight rain. Fog.5 mph93%29.72 "Hg2 mi
6:52 AM46 °FLow clouds.No wind96%29.72 "Hg10 mi
5:52 AM46 °FLight rain. Fog.No wind93%29.73 "Hg4 mi
4:52 AM46 °FLight rain. Fog.No wind93%29.75 "Hg4 mi
3:52 AM45 °FLight rain. Fog.No wind97%29.77 "Hg3 mi
2:52 AM45 °FLight rain. Fog.No wind93%29.80 "Hg4 mi
1:52 AM43 °FLow clouds.No wind93%29.83 "Hg7 mi
12:52 AM41 °FOvercast.No wind93%29.87 "Hg8 mi
11:52 PM
Dec 16
40 °FMostly cloudy.No wind93%29.89 "Hg8 mi
11:03 PM40 °FPartly cloudy.No wind89%29.91 "Hg10 mi
10:52 PM40 °FMostly cloudy.No wind93%29.91 "Hg10 mi
9:52 PM40 °FMostly cloudy.No wind93%29.95 "Hg10 mi
Weather by CustomWeather, © 2014

See weather overviewHow to use our weather pages